Theta_e
307 307 308 309 310 311 313 313 314 315 316 316 316 315 314 313 313 313 313 313 312 312 312 312 312 312 312 311 312 316 320 325 327 327 330 324 313 316 320 322 321 319 319 320 321 321 325 330 332 335 336 339 340 346 354 356 365 372 377 374 362 361 361 357 361 361 362 364 364 366 361 364 371 364 362 364 363 354 347 346 345 346 346 346 350 351 350 351
306 306 306 307 308 309 310 311 312 313 314 315 315 315 313 313 313 313 313 313 313 312 312 312 312 312 311 310 313 317 322 325 329 333 334 318 316 320 320 323 323 321 319 319 320 321 327 329 331 334 337 341 339 348 355 354 368 377 377 371 364 363 358 355 359 358 360 364 365 365 363 364 367 363 364 368 364 352 348 347 347 349 348 348 350 351 351 352
306 305 305 306 306 307 308 309 310 311 312 313 314 313 312 313 313 313 313 313 312 312 312 312 312 311 311 311 313 319 324 328 338 345 335 319 321 322 325 328 323 321 320 319 319 320 325 328 330 331 336 339 339 352 353 354 370 371 372 371 364 361 356 356 359 359 361 363 364 366 365 364 365 362 365 372 365 355 353 349 350 352 350 350 350 351 351 351
305 305 305 305 305 306 307 308 309 310 311 312 314 313 312 312 313 312 313 312 312 312 312 312 312 311 311 311 314 322 326 333 341 339 332 327 325 323 326 329 324 320 318 318 318 320 324 326 329 331 333 333 340 353 350 355 369 364 368 370 359 358 361 360 359 361 362 363 366 366 365 366 364 361 366 375 367 360 360 351 349 352 351 350 349 350 351 350
306 306 306 305 306 306 306 307 308 309 309 311 313 313 312 312 313 313 313 312 312 312 312 312 311 311 312 312 318 324 328 333 332 328 329 329 327 327 328 328 324 318 315 317 319 323 326 329 331 332 331 331 342 353 352 353 357 358 362 363 358 360 366 363 360 362 359 361 366 366 368 366 365 365 368 373 364 359 362 356 349 348 350 350 350 350 350 350
306 306 307 306 306 306 306 307 307 308 309 310 312 313 312 312 312 313 314 314 313 313 312 312 311 312 311 313 322 327 329 328 327 327 326 324 323 328 330 325 320 316 317 321 324 328 331 332 333 333 330 330 342 351 353 348 347 357 359 357 358 361 367 365 361 362 359 362 365 366 367 362 365 367 365 371 366 362 363 359 348 345 349 349 350 350 348 349
307 307 307 307 307 307 307 307 307 307 308 309 311 313 312 312 313 313 315 316 316 315 315 314 312 311 312 317 326 331 335 333 329 328 325 323 319 322 325 320 317 318 320 325 329 332 333 333 332 332 327 327 340 350 352 347 345 354 357 356 357 359 364 364 363 362 360 364 365 364 365 364 367 362 361 372 371 367 364 357 349 345 348 348 348 349 347 348
307 307 307 307 307 307 308 307 307 307 308 308 310 312 312 312 313 313 316 318 318 318 318 318 314 312 312 320 329 334 340 339 331 326 325 323 318 316 318 317 318 318 320 325 329 331 330 329 328 327 325 327 342 351 349 348 348 352 355 355 356 360 364 363 363 364 362 365 364 364 368 368 366 362 366 373 371 367 359 358 358 348 345 347 347 347 347 347
307 307 307 307 307 308 308 308 308 307 308 308 309 311 313 312 312 313 316 319 319 319 319 320 316 313 314 323 332 333 335 334 327 326 324 323 320 315 317 318 319 318 321 323 325 328 326 327 328 325 324 326 340 349 347 350 351 352 353 354 357 361 363 362 362 364 364 365 366 368 370 369 366 365 368 371 369 365 360 365 365 352 345 345 345 347 347 347
307 307 307 308 308 308 308 308 308 308 308 308 309 311 313 313 312 314 316 319 319 319 319 320 317 314 318 328 334 330 329 328 326 326 324 323 320 317 318 319 319 319 323 324 324 325 325 326 327 324 325 326 335 345 345 349 352 351 351 353 357 361 361 362 364 364 364 365 365 369 371 371 369 368 369 369 367 365 370 374 367 361 358 349 345 345 346 346
308 308 308 308 308 308 308 308 308 308 308 308 309 310 312 313 312 313 317 319 319 318 319 320 317 314 320 330 331 325 326 328 327 327 325 324 322 321 321 320 321 322 323 325 324 325 325 325 324 323 326 327 333 345 346 346 350 351 353 357 358 361 362 361 366 365 364 366 363 367 371 371 369 372 377 371 367 370 378 378 366 368 370 356 345 344 346 346
308 308 308 308 308 308 308 309 309 309 308 308 309 309 312 313 313 313 316 318 318 318 318 317 316 317 325 332 331 326 325 327 328 328 327 325 324 325 325 324 325 325 324 325 326 326 326 323 323 324 326 327 331 342 347 347 351 354 359 365 361 363 367 363 366 363 364 368 365 365 366 368 371 372 375 369 368 373 375 375 367 367 366 356 349 346 344 345
308 308 308 308 309 309 309 309 309 309 309 309 309 309 311 313 313 313 315 318 318 317 316 315 317 322 329 335 329 324 326 328 329 329 326 326 326 326 327 327 327 327 326 326 327 326 326 322 323 325 327 328 329 337 348 348 352 357 361 367 366 366 370 368 366 364 366 366 365 366 359 365 373 368 369 368 367 367 366 372 369 366 366 357 354 350 346 347
309 308 308 308 309 309 309 309 309 309 310 309 309 309 310 313 314 313 316 319 318 317 316 315 318 325 334 336 327 324 329 330 329 328 326 325 327 326 326 327 327 327 327 327 327 325 324 322 322 326 327 328 328 334 347 350 352 360 358 361 366 363 366 370 366 365 368 363 364 367 360 366 373 365 367 369 368 366 365 372 367 366 371 363 356 351 348 350
310 309 309 309 309 309 309 310 310 310 310 310 310 310 311 313 313 313 317 319 319 318 318 320 321 328 339 337 329 327 330 328 328 328 327 326 326 325 326 326 327 327 327 327 326 323 322 321 323 327 327 327 327 327 341 351 352 358 353 350 357 356 362 372 367 364 366 364 365 365 359 365 371 366 369 371 370 369 368 371 367 365 370 366 358 350 348 351
311 311 310 310 309 309 310 310 310 310 311 311 310 310 311 313 314 314 318 320 320 319 321 325 325 328 338 336 329 329 328 327 328 328 327 325 325 324 324 326 326 326 326 324 322 321 320 322 324 326 325 325 326 325 333 342 344 351 354 347 346 350 359 369 368 365 366 366 366 365 363 367 369 367 369 371 371 369 369 372 371 367 367 365 359 352 352 354
311 311 311 311 310 310 310 310 311 311 311 311 311 312 312 313 313 315 320 322 322 323 322 325 327 327 333 331 329 331 329 328 327 326 326 324 324 324 322 321 321 322 322 320 320 321 320 323 324 324 325 324 325 327 327 329 335 342 348 344 344 352 359 365 367 366 368 368 367 366 366 365 367 368 368 371 373 370 369 371 373 368 361 360 357 356 359 355
311 311 312 312 312 311 311 311 311 311 311 312 312 312 312 315 318 321 325 324 326 329 328 329 327 325 328 332 332 332 330 328 326 325 324 324 323 322 321 320 319 319 319 319 320 320 321 324 324 323 324 323 324 325 320 323 333 336 338 336 341 355 359 362 365 366 368 369 368 364 362 363 366 368 367 370 374 373 372 371 371 368 360 356 357 363 366 357
310 311 312 313 312 312 311 311 311 311 312 313 312 312 317 324 328 328 327 327 330 334 334 335 329 322 326 332 332 331 330 328 325 323 323 323 323 322 322 321 320 320 319 320 320 320 322 323 322 320 320 321 323 324 320 324 332 337 339 335 340 353 357 361 365 364 365 367 368 365 361 365 368 368 367 370 373 371 370 369 369 368 364 358 358 364 366 359
310 311 312 313 313 313 312 311 312 312 312 314 313 315 323 329 332 332 331 332 335 330 327 332 330 326 326 327 327 328 327 326 323 323 322 322 322 321 322 322 322 321 320 321 321 321 322 322 321 319 319 320 321 323 322 324 328 333 338 336 340 348 350 359 365 364 365 364 364 363 360 365 367 367 368 367 368 368 367 367 368 371 368 360 356 356 357 358
311 312 312 313 314 313 313 312 312 313 315 316 316 319 323 323 324 326 328 332 334 329 326 328 329 328 327 326 327 325 323 322 321 322 322 321 322 322 323 323 323 323 322 321 321 321 321 320 320 321 321 321 321 322 322 323 323 324 330 334 338 343 350 359 364 365 365 360 359 360 360 363 364 364 367 366 365 367 367 368 368 370 370 364 357 355 355 356
312 312 312 313 314 314 314 313 312 315 317 316 317 320 320 319 322 321 320 324 326 328 330 330 328 329 328 327 328 326 324 322 320 322 322 321 321 322 324 323 323 324 323 321 321 320 319 318 320 320 320 320 321 321 321 322 322 324 332 335 336 345 355 356 359 364 362 357 359 360 358 363 365 363 364 365 364 367 367 368 369 367 368 367 361 358 358 356
313 313 313 314 314 314 315 313 313 317 317 316 317 319 320 320 321 321 320 322 322 323 327 328 327 328 328 326 327 328 326 322 321 322 321 322 322 322 324 323 323 323 321 321 321 318 315 317 320 320 319 319 320 320 321 321 320 329 339 335 335 346 349 345 354 363 361 358 362 363 362 370 373 364 363 365 365 368 369 371 372 368 368 367 362 362 360 355
313 313 314 314 314 316 315 313 317 319 316 317 317 318 321 322 322 322 321 322 322 321 322 323 324 324 325 325 325 327 325 323 323 322 321 322 323 323 324 323 323 322 322 322 322 319 317 319 320 319 319 320 319 319 320 320 318 326 337 336 337 344 345 345 354 360 358 357 362 362 356 365 374 363 360 365 364 363 367 370 372 370 369 367 364 364 361 356
314 313 314 314 314 315 314 316 320 318 316 318 318 320 323 324 323 321 322 324 324 324 323 321 321 323 323 323 324 325 325 324 323 322 321 321 322 323 324 323 323 323 323 322 321 320 320 320 320 319 319 319 319 320 320 320 317 316 328 340 344 345 345 348 354 356 351 348 356 354 342 349 369 367 360 364 363 361 367 370 371 371 369 368 369 366 362 362
314 314 314 314 314 314 316 322 319 315 319 320 319 323 324 324 323 321 324 326 322 324 325 322 321 323 323 323 324 324 323 324 324 322 321 322 321 322 323 323 324 323 323 324 324 322 321 321 322 320 320 319 319 320 322 322 316 312 319 336 345 347 346 350 353 351 343 344 352 352 344 345 356 362 364 366 366 367 370 370 370 372 370 370 374 370 364 364
314 314 314 314 314 313 317 321 316 316 320 319 321 325 323 322 322 321 326 325 324 327 324 321 322 323 323 323 324 323 321 322 323 322 322 323 322 322 323 324 325 323 324 325 322 323 324 323 323 323 321 320 320 320 324 323 315 313 320 334 345 348 345 348 351 344 340 345 350 349 350 348 346 353 364 367 368 372 371 368 368 371 370 369 371 370 364 362
315 315 314 315 314 312 315 317 315 317 318 318 323 323 322 322 321 324 327 323 327 327 323 321 323 322 323 323 323 324 324 323 323 322 323 322 323 323 322 324 325 324 325 322 316 321 325 323 323 326 322 321 321 321 326 323 316 319 322 327 339 345 346 349 348 340 339 345 345 344 343 343 344 353 363 365 365 370 371 368 368 371 370 367 366 365 362 360
315 315 314 314 314 314 315 315 315 317 316 320 323 321 321 321 323 330 329 325 327 324 324 323 322 323 324 323 322 324 324 324 324 323 323 322 323 323 323 324 324 322 323 321 320 323 324 325 325 324 322 322 323 324 324 321 320 323 323 324 329 337 347 349 345 337 333 338 340 339 337 340 345 352 359 361 361 365 370 369 369 371 369 365 363 362 360 360
315 316 314 314 314 315 315 314 315 317 316 319 322 322 322 324 330 329 322 323 325 323 324 323 323 324 323 323 323 324 324 324 325 323 322 322 322 322 323 325 322 323 325 322 323 324 322 326 329 326 325 324 323 325 322 320 322 323 325 328 324 333 344 343 341 334 323 328 337 335 335 341 346 351 358 363 364 365 369 367 367 369 366 363 362 359 357 360
315 316 314 315 315 314 315 316 317 317 317 320 323 323 323 327 332 324 319 323 321 322 324 323 325 324 323 324 325 324 324 324 324 322 322 323 323 322 322 324 324 323 325 322 321 324 324 324 328 327 328 326 323 325 325 324 323 321 329 329 320 328 335 330 331 328 317 322 332 332 333 339 342 348 355 362 365 363 365 366 366 368 366 363 362 358 356 357
315 316 315 315 316 316 317 319 319 317 317 322 323 325 328 326 322 320 322 320 316 322 325 324 325 324 323 324 324 325 324 324 324 323 323 323 323 324 321 325 325 318 316 318 317 321 324 324 324 324 327 326 323 323 324 327 326 323 330 328 316 318 322 321 324 323 318 323 331 334 338 343 347 353 354 358 360 359 363 363 363 366 367 366 365 362 357 353
314 316 316 316 318 317 316 317 319 319 320 324 325 328 330 324 320 321 322 317 316 322 325 324 326 325 324 324 324 324 323 324 324 323 324 323 323 324 321 325 327 319 316 318 315 314 319 324 326 322 322 326 325 322 319 321 324 322 323 322 316 317 317 319 324 322 321 329 334 341 347 345 348 355 356 359 359 360 364 361 360 365 367 367 365 363 359 354
315 316 316 318 318 317 317 318 320 322 322 326 330 330 324 319 323 325 321 318 320 322 324 323 324 325 324 323 324 324 323 323 324 323 324 324 321 322 322 322 323 322 321 317 315 313 312 318 326 323 320 324 326 325 323 322 323 323 326 323 318 322 322 317 321 321 322 330 335 339 346 344 347 353 357 360 360 361 362 359 359 360 360 361 360 360 359 358
316 317 317 321 320 320 322 321 320 322 323 330 334 329 322 319 322 322 321 323 322 323 325 322 322 324 323 324 324 324 323 322 323 324 324 323 321 321 324 322 322 324 320 316 318 317 311 314 326 326 323 324 324 325 327 325 323 324 329 324 316 325 328 320 323 325 323 333 338 334 339 346 352 358 356 355 357 358 359 356 356 356 355 357 358 359 358 358
316 317 320 323 323 325 326 322 321 323 328 336 332 324 323 323 322 321 323 324 323 324 324 320 321 320 317 321 324 324 324 323 324 323 322 323 322 321 324 323 323 323 320 320 321 318 312 316 326 324 323 325 324 324 326 322 324 327 325 322 322 329 332 321 318 323 329 336 337 336 341 346 351 356 353 352 356 356 357 358 356 357 356 357 360 360 361 361
317 320 322 324 324 325 326 324 323 325 331 335 332 329 329 325 322 323 324 325 323 325 322 317 319 319 313 316 321 323 323 322 322 321 320 321 321 322 324 323 323 324 323 322 321 320 316 316 327 326 320 324 325 326 329 325 329 328 320 326 332 329 334 329 320 324 335 337 334 337 344 343 344 352 355 356 358 356 356 357 356 357 357 357 359 359 361 363
319 321 323 327 326 325 326 325 325 328 331 333 336 340 334 325 324 323 323 323 323 324 322 316 318 321 316 313 316 320 320 318 319 321 319 319 320 322 324 322 323 324 323 322 322 326 321 313 324 331 321 323 328 324 323 325 329 327 322 333 333 323 329 329 320 324 333 334 334 336 341 342 342 347 352 355 358 356 355 356 355 355 356 356 357 356 359 362
320 325 329 330 328 326 327 327 328 331 332 333 335 335 328 323 324 323 322 323 322 323 323 320 319 321 319 316 316 320 319 316 318 319 317 318 320 322 324 323 323 324 323 323 324 328 327 316 318 331 327 325 329 325 320 321 326 329 326 327 332 334 335 328 322 327 333 336 337 335 337 343 347 348 351 354 356 357 357 355 354 354 356 358 357 357 359 360
320 328 333 329 328 329 327 327 328 331 334 337 336 329 324 323 323 322 322 323 322 323 323 323 321 320 321 321 319 320 320 318 319 319 318 320 320 320 323 323 323 324 322 322 324 327 328 318 315 329 332 322 322 324 322 323 324 324 322 319 323 331 331 328 329 332 335 339 339 336 336 346 358 355 353 354 355 357 357 354 354 354 356 358 358 359 359 358
321 331 335 329 326 329 329 329 331 332 334 336 333 327 325 325 324 323 324 322 322 323 322 323 322 321 321 321 319 320 320 319 319 319 320 321 319 318 322 324 323 324 322 322 324 323 322 321 319 323 321 316 323 332 327 328 329 327 325 325 327 327 323 324 327 329 334 336 335 336 335 347 366 358 349 353 354 355 356 352 353 354 354 356 357 357 358 358
322 326 330 325 322 324 326 331 334 332 332 331 329 326 326 328 327 324 324 323 323 323 322 322 322 322 322 321 321 321 320 319 319 319 320 322 321 320 323 324 322 323 325 323 322 327 335 332 319 317 324 324 325 328 326 325 329 331 332 336 338 334 331 329 325 325 330 329 331 336 334 346 367 357 347 353 353 353 354 351 351 352 352 354 356 355 355 355
318 318 322 322 322 321 324 332 334 330 328 327 326 325 325 327 326 325 325 324 323 323 323 322 322 322 322 321 321 321 320 319 318 319 321 322 322 322 323 322 321 323 325 322 322 330 339 331 317 319 339 350 339 333 335 331 329 328 330 337 337 332 339 344 337 333 331 327 332 337 335 346 363 357 351 353 352 353 353 350 351 351 351 354 354 354 354 354
314 315 320 323 325 323 325 331 332 330 329 326 324 324 325 325 324 325 325 324 323 324 323 323 322 321 322 321 321 321 319 318 319 320 321 321 321 322 322 322 323 321 322 327 329 325 325 329 325 318 323 334 336 334 333 331 331 329 328 332 333 331 337 338 334 336 333 328 331 333 334 346 356 354 353 353 351 351 350 350 351 351 351 353 354 354 355 355
316 319 321 323 324 324 326 328 327 326 328 326 325 326 326 326 326 325 326 326 325 324 323 324 323 322 323 322 321 323 321 319 318 319 321 320 321 323 321 322 324 321 329 344 344 333 331 336 338 329 322 323 324 326 329 331 331 330 329 330 328 328 331 329 328 331 330 329 330 330 334 344 351 352 354 353 351 351 352 351 351 351 352 354 355 356 355 356
322 328 329 327 326 325 326 325 323 324 325 324 326 327 326 327 326 326 328 327 326 325 324 324 323 323 323 323 323 324 323 321 320 320 322 321 321 322 321 323 322 325 350 363 346 337 341 339 351 360 346 333 335 345 348 339 327 321 323 328 328 326 332 333 328 327 331 332 332 334 336 336 340 349 353 350 350 351 352 352 352 354 355 355 357 356 355 357
323 330 330 327 329 330 328 325 324 324 324 323 326 327 325 325 326 327 329 328 327 328 326 324 323 323 324 326 325 325 325 326 325 324 324 323 323 322 323 324 322 332 355 354 335 337 338 326 337 360 347 333 346 358 348 331 324 321 322 325 326 328 332 330 323 325 334 332 328 338 342 333 336 348 349 347 349 350 351 352 352 354 356 357 357 356 356 357
323 327 325 323 329 333 330 328 326 324 324 323 325 326 325 325 326 326 329 329 328 329 328 327 326 324 326 326 324 326 327 327 329 330 328 329 329 329 332 330 325 333 339 331 328 342 337 323 326 334 331 330 337 338 331 327 327 327 325 324 327 328 327 326 327 332 337 330 328 340 343 334 336 344 344 345 348 348 349 350 351 353 356 357 357 358 357 356
322 324 323 322 326 328 326 325 326 326 326 326 329 329 325 325 325 325 327 328 327 327 327 328 327 325 327 326 324 329 330 325 327 331 331 333 333 333 336 332 329 333 332 326 331 334 328 331 336 325 321 327 328 326 329 328 325 325 326 326 327 327 325 325 329 334 337 334 336 342 341 338 339 340 340 343 344 344 348 351 352 355 357 357 357 358 357 356
320 322 322 322 323 324 324 325 326 327 327 326 329 329 323 324 325 324 325 326 326 327 325 326 327 326 326 326 327 331 332 329 330 331 332 335 336 335 335 332 331 333 330 329 334 329 322 333 348 331 317 322 328 327 328 326 324 323 324 327 326 323 325 325 327 337 342 339 340 343 339 340 343 340 340 344 346 348 351 353 355 356 355 356 356 357 356 354
315 317 319 321 324 326 325 326 326 325 326 327 328 327 324 325 325 324 325 324 323 325 324 324 328 327 326 328 329 330 331 332 333 331 331 334 334 333 334 334 332 333 333 331 333 334 327 330 341 329 314 319 329 324 323 325 324 322 323 329 327 322 324 326 328 343 353 344 343 341 335 340 348 346 346 349 350 351 352 353 356 355 355 355 354 354 353 351
313 315 316 320 325 327 324 325 324 323 327 327 325 325 325 325 325 324 327 327 324 324 324 324 326 328 331 332 329 329 330 331 331 330 330 331 331 330 332 333 331 331 334 333 332 336 332 326 330 325 316 322 329 321 322 321 317 321 331 334 332 328 330 331 330 340 348 344 341 337 335 344 350 347 349 351 350 350 351 352 353 353 353 353 352 352 350 349
Wind_Speed
16 16 16 16 16 16 16 16 17 18 18 19 20 20 19 17 16 15 15 16 16 16 16 16 15 14 13 13 14 15 17 12 5 5 6 6 8 12 7 2 1 4 10 10 10 7 5 7 10 10 6 3 3 3 5 5 1 3 3 3 3 3 1 1 3 4 3 2 4 5 4 4 5 7 7 5 4 8 10 9 10 9 9 13 20 29 30 28
17 17 17 18 18 18 17 17 18 18 18 19 20 21 19 17 15 15 15 15 15 16 16 16 14 13 12 13 14 15 16 12 6 7 9 5 7 12 10 6 4 4 8 13 13 9 3 3 5 5 4 2 3 3 5 4 2 3 2 3 2 2 3 5 5 4 2 2 4 5 4 3 3 4 5 6 6 7 9 11 13 13 13 15 22 29 28 27
18 18 18 18 18 19 19 19 19 19 19 20 21 22 20 17 15 14 14 14 15 15 16 16 14 12 12 12 13 14 14 9 3 6 4 6 11 12 10 7 7 7 10 13 11 9 7 7 7 5 3 4 4 5 5 2 1 2 3 3 2 6 6 6 5 4 4 4 2 5 4 3 3 3 2 3 7 7 8 10 14 14 15 17 18 23 26 26
18 19 19 19 19 19 20 20 20 20 20 21 22 23 20 17 16 15 14 13 14 14 15 15 13 11 11 11 11 12 10 4 2 4 1 6 10 12 11 8 8 9 13 12 7 7 10 10 9 5 4 5 3 7 4 3 2 2 3 3 6 9 7 5 5 4 4 4 2 3 4 3 4 2 1 2 6 7 4 6 14 17 18 19 16 19 23 22
19 19 20 20 20 20 20 20 21 21 21 21 22 23 20 18 16 15 14 13 14 14 14 13 12 10 9 10 9 9 6 3 2 4 2 4 7 11 11 9 9 11 12 9 6 6 8 7 5 4 3 3 3 6 2 4 4 3 2 2 6 7 5 6 7 4 3 3 3 2 3 3 4 2 3 4 5 3 2 1 12 19 19 19 18 18 19 19
20 20 20 20 21 21 21 21 21 21 21 21 22 22 21 19 17 16 14 13 14 14 14 12 10 8 8 9 7 6 2 1 5 5 3 2 4 9 10 10 10 10 10 6 4 3 4 3 3 2 2 2 4 7 5 5 4 3 1 2 5 5 5 6 6 4 3 2 3 2 2 3 4 4 4 3 3 3 5 2 8 17 20 22 20 18 18 17
21 21 21 21 22 22 22 22 22 21 22 22 22 22 21 19 18 16 14 14 14 14 14 12 9 6 6 6 4 3 2 4 8 6 5 2 4 7 9 10 10 9 10 6 3 2 2 3 4 2 2 4 5 9 8 7 5 5 4 6 6 5 6 6 6 4 2 2 2 1 3 3 3 3 3 2 1 3 3 2 6 11 19 22 19 17 17 17
22 22 22 22 22 23 23 23 22 22 22 22 22 22 21 19 18 17 15 14 14 15 14 12 8 4 5 4 2 3 1 5 6 9 7 4 6 9 10 11 10 9 9 6 5 3 1 4 5 2 2 4 6 10 9 8 6 5 5 7 5 3 5 6 6 5 3 3 2 1 2 3 1 1 3 3 4 2 3 5 5 4 15 18 17 18 16 15
23 23 23 24 23 23 23 23 23 23 22 22 21 21 21 19 18 17 15 14 15 15 14 11 7 3 4 2 2 3 5 5 6 11 8 6 8 11 12 10 10 9 7 6 6 5 2 3 4 1 3 4 3 9 10 7 3 5 7 8 6 4 5 7 7 7 5 3 3 3 1 3 1 1 1 3 4 4 5 4 5 3 13 13 15 17 16 16
24 24 25 25 24 24 24 24 24 23 23 22 21 21 21 19 18 17 15 15 15 15 14 9 4 2 2 1 4 2 6 4 9 11 8 6 9 11 12 10 10 10 7 6 7 7 6 5 5 2 2 2 2 8 10 6 5 8 8 8 7 4 4 5 7 6 5 4 5 4 2 2 1 0 1 4 2 3 4 3 5 2 5 6 12 15 14 15
25 25 25 25 25 25 25 25 24 24 23 22 22 21 20 19 18 17 15 15 15 14 13 8 3 1 2 3 4 3 6 6 12 10 8 8 9 9 10 10 9 11 10 7 9 12 10 11 8 3 2 1 1 5 7 7 10 10 8 7 5 2 1 2 5 5 4 3 5 4 3 2 1 1 3 4 1 3 4 3 3 3 2 5 9 12 10 10
25 25 26 26 26 26 26 26 25 25 24 23 22 21 20 19 18 16 15 14 14 13 10 6 2 2 1 2 4 7 4 7 11 9 9 8 8 5 7 10 10 11 13 8 10 13 13 14 7 4 3 2 1 2 5 10 12 8 7 8 3 4 3 3 2 4 3 3 6 5 3 1 0 2 4 2 1 3 4 2 1 2 2 3 7 5 6 10
25 26 26 26 26 27 27 27 27 26 25 24 22 21 20 19 18 15 14 13 12 10 8 5 2 1 3 0 9 10 5 8 12 11 12 9 5 4 6 9 10 10 13 13 12 14 16 16 8 4 4 2 2 2 6 10 10 6 3 4 3 4 3 5 2 2 3 2 5 4 2 2 3 6 5 1 1 2 3 2 2 1 2 4 6 3 3 6
25 26 26 27 27 27 28 27 28 27 26 25 22 21 20 19 17 14 12 10 9 8 6 4 2 2 2 4 15 16 11 9 14 15 14 12 9 9 9 10 11 11 13 17 17 15 16 17 9 3 2 2 3 3 7 7 7 6 3 2 3 2 2 4 3 3 2 2 5 3 2 3 5 6 6 3 3 2 3 2 3 2 2 3 5 5 6 6
26 26 27 27 28 28 28 28 28 28 28 26 23 21 20 18 15 11 9 8 6 5 4 4 2 2 1 7 14 12 6 7 19 20 16 15 13 10 12 16 16 16 14 15 16 15 15 14 6 1 3 1 3 4 4 4 2 4 4 0 2 2 2 3 4 6 4 1 4 2 2 3 6 6 4 4 4 4 4 1 3 5 4 4 3 6 7 7
27 27 27 27 28 28 29 29 29 29 29 27 25 22 19 17 14 10 8 6 3 2 2 4 3 2 1 5 8 7 2 11 17 18 17 16 14 11 12 16 17 17 17 14 12 13 12 8 2 1 2 3 3 4 3 3 1 2 3 3 4 3 3 2 4 7 6 1 4 4 2 2 4 4 4 4 5 5 3 1 1 5 7 6 3 5 6 7
27 28 28 28 28 28 29 30 29 30 29 28 27 22 18 16 13 9 6 3 1 1 1 1 3 2 2 6 7 6 6 11 12 14 16 13 11 12 10 8 10 13 13 10 7 7 5 2 1 2 1 1 1 5 3 2 4 3 1 2 4 5 5 4 3 7 7 3 5 5 3 2 2 3 4 4 4 5 3 2 2 3 8 6 2 4 5 6
28 28 28 28 28 29 29 30 30 30 30 28 26 23 17 12 8 4 1 3 2 0 1 2 2 2 3 5 4 4 6 10 12 13 14 12 9 11 9 6 5 5 4 3 3 2 1 2 1 2 3 2 2 4 3 5 5 5 5 3 3 5 6 6 4 5 9 6 3 4 4 5 2 4 4 4 4 5 4 3 2 3 8 9 6 4 4 5
29 29 29 29 29 29 30 30 30 31 30 27 23 19 11 5 2 2 4 4 2 1 2 2 3 2 3 5 5 7 7 11 13 11 12 13 10 10 9 7 3 6 4 1 2 2 1 1 2 2 4 5 5 5 7 6 4 7 7 4 4 5 5 5 3 5 10 7 4 6 5 4 3 4 4 4 4 4 3 2 1 3 5 7 7 5 4 6
29 30 29 29 29 29 30 30 30 30 29 24 19 13 5 3 4 1 1 2 4 5 7 6 7 5 7 7 6 5 6 12 10 10 15 13 9 5 3 2 2 4 4 4 4 3 4 2 4 6 7 7 7 9 10 8 6 7 5 5 6 5 4 4 4 5 9 5 4 5 4 4 5 4 4 4 4 4 4 3 3 4 4 6 7 6 6 7
30 30 30 30 29 30 29 30 30 28 22 17 14 7 1 0 1 3 4 4 8 9 11 11 10 10 12 11 8 4 4 6 4 8 16 12 6 4 2 1 2 2 4 5 3 0 5 5 8 12 12 11 11 11 10 8 8 8 7 7 5 3 3 3 4 7 7 3 2 3 2 2 1 2 4 5 5 4 5 4 4 4 4 5 7 7 6 5
31 30 32 30 30 30 28 30 30 22 15 14 12 3 2 6 8 11 8 5 8 10 13 13 11 12 16 17 17 13 5 2 3 5 13 11 5 4 2 1 3 4 3 3 2 1 2 6 12 15 13 11 12 10 8 8 7 7 6 6 4 3 1 2 2 7 6 2 1 4 2 2 3 2 2 4 5 3 4 5 4 6 5 4 7 7 5 5
31 31 32 30 31 30 27 31 25 13 14 18 11 4 10 18 18 18 9 5 9 7 10 11 10 9 12 15 16 15 9 4 5 5 12 12 4 4 4 3 6 5 2 4 5 4 3 9 16 15 11 9 11 10 8 8 6 4 6 6 5 6 5 1 4 7 6 2 2 4 2 2 3 3 3 2 1 1 2 3 1 2 4 4 5 6 7 8
32 32 32 31 32 28 28 29 14 8 19 20 10 9 19 23 19 15 6 3 7 5 7 12 10 7 12 12 9 12 9 6 5 6 12 12 4 3 4 5 5 4 5 6 7 7 9 14 13 11 10 10 11 11 7 6 6 2 7 8 6 10 9 4 6 7 4 1 3 5 3 3 2 1 2 4 2 1 1 3 3 3 2 3 3 4 6 8
33 33 32 32 31 28 30 19 4 12 24 15 7 14 20 19 20 15 3 0 5 5 5 7 6 6 13 10 8 10 7 6 6 7 13 14 8 4 2 4 3 5 7 6 6 6 13 16 6 7 13 10 8 9 6 6 4 2 5 9 11 15 10 6 9 8 4 2 5 5 3 4 3 0 3 2 1 3 2 2 3 2 2 3 3 3 3 4
35 34 32 32 30 30 24 7 5 22 20 6 8 18 18 16 22 16 2 3 4 5 2 2 4 6 10 6 6 5 4 5 7 11 16 15 12 6 3 3 1 4 5 5 4 2 10 14 7 10 15 12 8 7 6 7 3 3 6 8 13 15 10 11 13 7 4 3 6 6 4 2 3 2 4 2 1 4 2 2 3 2 2 3 3 3 3 3
35 35 33 31 29 28 16 5 15 19 7 5 14 19 17 16 21 13 3 4 4 4 2 1 1 5 7 6 8 6 2 4 2 8 14 15 10 4 3 4 1 3 3 1 2 2 5 7 5 9 11 9 7 6 5 5 4 5 5 9 13 14 11 15 14 7 4 2 2 5 3 2 1 3 4 3 2 3 2 2 3 2 2 3 3 3 3 4
35 36 34 29 27 23 12 11 16 11 5 12 17 17 16 17 16 6 4 2 2 2 2 2 1 4 4 5 9 6 3 3 2 3 10 15 10 3 3 6 3 6 5 1 3 7 3 2 4 8 5 4 5 6 6 5 4 8 5 7 12 15 14 15 13 7 3 4 2 6 3 3 2 4 1 2 1 4 5 5 5 3 4 4 4 4 3 3
34 36 35 30 25 17 9 11 13 8 9 14 15 17 17 14 9 4 4 1 1 2 1 1 0 3 2 4 7 4 2 3 3 4 5 9 7 2 3 7 5 7 6 5 4 7 5 5 4 6 4 4 6 6 6 5 4 7 3 4 5 9 12 11 10 6 4 4 4 10 6 3 2 4 1 2 2 5 5 5 4 4 4 4 4 4 4 3
35 34 34 31 24 13 8 14 12 6 13 15 15 18 14 8 4 5 2 1 2 4 1 1 1 3 5 5 4 4 3 0 1 4 4 3 3 1 2 2 3 4 5 3 4 7 7 7 4 3 5 6 5 5 5 6 8 5 1 4 4 4 8 6 4 4 4 3 5 11 12 5 0 3 2 3 4 5 5 3 2 2 3 3 3 3 4 3
36 33 32 30 22 11 7 9 7 7 13 14 14 14 8 4 4 4 1 2 3 3 1 0 2 4 9 8 5 4 5 1 3 6 5 3 1 1 2 3 2 2 4 4 5 6 7 5 4 4 4 5 2 3 3 1 6 6 2 5 3 3 3 3 2 1 2 5 4 10 11 6 2 4 5 5 5 4 6 4 4 4 4 3 3 3 3 3
38 34 29 24 18 12 9 8 8 10 11 9 9 7 4 4 2 2 3 3 2 1 0 2 3 4 9 8 5 6 5 2 4 6 6 5 4 3 3 4 2 2 3 4 3 6 6 5 6 5 2 5 5 1 4 6 3 2 4 6 3 1 3 2 2 2 3 4 1 9 9 4 1 4 5 7 6 3 6 5 5 6 4 3 3 3 3 2
39 34 27 19 14 14 13 12 11 9 7 6 5 4 6 3 1 5 4 3 1 3 2 2 4 4 7 6 4 6 6 4 5 6 6 6 6 5 5 7 7 4 2 4 1 3 5 7 7 4 3 2 7 3 1 3 4 2 4 4 4 3 2 1 3 2 1 1 3 5 6 2 2 3 2 6 5 5 6 4 5 6 5 4 3 4 4 2
40 34 26 18 13 13 12 9 6 3 4 4 4 5 4 2 4 4 3 3 3 5 6 3 5 7 8 6 6 6 4 5 6 7 6 5 4 5 6 6 7 6 3 2 1 2 3 6 5 6 4 2 5 6 6 4 2 1 4 5 4 3 3 2 3 2 2 2 2 5 4 2 2 2 2 5 5 5 5 4 5 5 5 5 4 4 4 3
39 33 24 14 8 5 3 1 3 3 2 4 5 3 2 3 4 2 2 3 3 5 8 8 5 7 7 6 6 7 6 5 6 6 5 5 5 6 5 5 8 7 4 2 3 3 4 5 8 7 5 6 6 5 6 6 2 3 2 5 2 3 5 2 2 4 5 4 2 3 1 1 1 2 1 4 5 4 6 6 6 5 4 5 6 5 4 4
40 34 19 8 5 1 2 3 8 7 3 5 5 1 4 4 3 2 2 3 3 5 9 10 4 3 4 5 4 5 5 3 5 5 3 6 7 7 6 6 8 9 7 5 3 2 1 4 7 2 1 6 7 4 4 6 2 1 2 2 4 4 7 3 0 2 5 4 2 1 1 1 2 2 3 3 5 5 6 6 6 6 6 6 5 5 4 4
39 29 13 8 6 2 4 5 11 9 5 5 4 3 4 3 4 3 3 4 5 5 5 5 3 2 1 2 3 3 2 1 4 6 4 5 5 6 8 6 6 11 12 8 4 3 4 3 7 1 2 7 5 5 4 4 6 4 1 4 2 3 4 4 2 2 4 4 1 1 4 3 2 1 2 3 6 6 7 6 6 7 8 7 5 5 5 5
29 20 11 8 2 5 5 7 10 7 5 4 1 3 3 3 4 3 4 5 6 5 2 2 3 2 4 1 3 5 4 3 2 4 2 3 4 7 10 6 5 12 13 11 4 2 5 1 7 3 7 5 1 3 3 1 2 5 5 3 3 3 1 1 2 1 3 3 1 2 4 4 4 4 5 7 8 8 7 6 8 8 9 8 6 7 7 6
17 9 6 3 3 4 7 10 8 4 5 2 1 3 2 4 6 6 7 6 4 4 3 3 3 1 2 2 1 3 3 2 3 4 2 2 4 6 9 6 6 11 12 11 6 3 3 3 4 6 5 2 4 2 2 3 4 2 3 1 2 3 3 1 1 2 4 3 2 3 3 3 4 6 9 11 10 9 8 7 8 9 9 8 7 7 7 6
7 2 4 2 5 9 13 11 4 4 3 2 3 3 3 5 7 9 9 7 3 4 3 2 1 3 0 2 1 1 1 1 2 2 1 3 3 3 5 6 7 8 9 11 8 2 1 3 2 6 3 3 1 2 5 5 2 1 0 1 1 2 2 2 0 1 5 4 3 3 3 5 5 5 10 12 11 10 9 8 8 8 8 8 8 8 7 6
3 2 3 3 7 7 10 6 2 2 2 3 3 3 4 4 7 10 11 8 5 5 3 3 2 2 2 1 1 2 1 1 2 1 2 4 2 2 4 5 5 4 5 7 7 3 2 3 3 2 3 1 4 6 6 8 6 4 4 3 3 3 3 4 1 3 2 4 4 4 3 5 5 5 9 11 10 9 9 10 8 7 8 7 7 7 6 6
1 2 5 2 4 5 1 2 1 2 2 3 3 4 5 5 6 9 10 8 6 4 2 1 2 2 2 2 1 2 1 2 2 2 3 4 3 3 6 8 6 4 6 6 8 5 3 3 4 2 3 4 7 6 3 6 6 6 4 3 4 4 4 5 3 3 1 3 3 4 2 5 5 5 9 9 10 8 8 10 9 6 7 7 6 6 6 6
0 5 12 12 9 4 2 1 4 2 3 4 5 7 7 6 7 9 8 7 5 3 1 1 0 1 2 3 2 1 0 2 4 3 2 3 4 6 7 10 9 4 4 5 6 3 2 3 3 2 4 4 5 6 4 0 3 5 1 2 3 4 4 5 5 4 4 3 3 4 1 5 5 4 7 8 9 8 7 9 10 7 6 7 8 8 7 7
3 5 9 13 9 3 5 2 3 3 4 5 6 8 8 7 8 9 7 5 4 2 1 1 0 1 2 2 4 3 1 2 3 2 2 3 4 7 7 8 9 5 3 4 5 2 1 2 3 2 3 5 6 6 6 5 3 3 1 2 2 4 5 5 3 4 3 3 4 5 3 6 4 2 6 7 8 8 7 8 10 9 7 7 8 7 7 7
5 3 5 10 8 2 4 2 1 1 4 5 7 8 7 6 6 7 7 5 5 3 2 2 2 2 2 2 4 4 3 3 4 3 3 3 4 6 5 8 8 6 8 4 8 6 3 3 4 5 3 2 1 2 3 2 2 1 1 3 2 3 6 5 4 5 2 4 5 6 5 5 2 4 7 7 9 9 8 8 9 9 9 8 7 7 7 7
3 1 3 6 5 1 1 2 4 3 3 6 7 6 6 6 6 8 7 5 5 3 1 2 2 2 2 3 3 4 3 3 3 3 3 3 3 4 6 10 7 8 12 3 5 5 4 3 4 7 6 5 6 6 5 3 1 1 4 6 3 2 5 5 5 3 4 6 4 5 7 6 4 6 8 7 10 11 10 10 8 7 8 8 7 7 7 6
0 1 2 3 4 3 3 4 5 4 4 5 4 4 7 9 7 7 6 3 5 6 3 2 2 2 2 2 1 2 3 3 3 4 4 4 3 4 8 9 7 13 17 8 2 3 4 3 4 8 7 7 8 7 6 4 3 4 3 6 5 0 5 6 4 4 7 8 4 7 9 12 10 10 11 10 11 11 11 12 10 9 8 8 7 8 7 7
1 2 2 3 2 2 2 4 6 6 7 6 3 5 8 9 7 6 5 4 5 4 3 3 5 4 5 4 2 2 3 4 4 3 3 4 4 5 8 7 8 15 16 8 5 3 5 3 4 7 5 6 6 5 6 5 4 5 4 6 8 5 4 6 5 7 11 8 7 9 12 15 12 11 13 13 13 14 13 12 11 10 10 9 8 9 8 7
2 2 3 4 2 2 3 6 7 6 7 6 4 5 6 8 9 8 5 4 5 3 3 3 7 7 7 6 3 2 3 3 4 2 1 2 3 4 5 5 7 11 11 8 6 2 4 2 5 5 4 5 5 5 4 2 3 4 5 8 8 5 4 5 5 11 11 6 7 13 14 12 9 10 14 13 11 12 10 10 10 10 11 10 10 9 8 7
2 2 3 3 3 4 4 6 4 4 5 4 4 4 5 7 8 9 8 6 6 5 3 5 7 6 10 9 3 1 2 1 0 1 1 2 2 2 2 1 3 7 8 6 6 5 3 4 5 3 3 3 4 4 3 4 5 4 5 9 5 0 1 2 3 8 6 0 5 12 12 6 4 7 10 9 8 9 10 10 11 11 11 11 10 9 8 7
5 6 5 3 3 3 3 3 3 3 3 3 3 3 4 6 8 11 9 8 7 6 6 8 7 5 8 8 4 5 5 4 5 1 1 2 1 2 1 1 1 4 6 4 4 6 4 3 3 4 2 4 3 5 3 2 2 3 5 7 4 2 1 2 2 4 6 7 9 10 7 5 4 6 8 6 8 12 12 12 11 9 10 11 10 9 8 9
10 9 6 3 3 3 2 2 2 3 3 3 3 5 7 9 10 9 6 7 10 11 11 11 7 4 5 5 6 6 5 1 4 3 3 3 3 3 3 3 3 2 2 1 3 4 2 3 4 2 3 4 5 5 2 3 4 5 5 5 6 5 3 0 3 0 7 12 10 7 7 6 6 9 10 8 10 12 12 11 10 9 9 10 10 10 10 10
Wind_Direction
7 4 1 1 359 356 355 354 351 349 349 348 348 346 341 336 332 331 328 327 328 329 329 334 350 355 348 347 343 338 337 334 305 246 233 264 229 196 192 174 144 204 200 218 234 233 251 246 246 244 241 232 209 205 171 161 97 78 68 81 82 63 47 283 199 192 190 242 283 298 326 337 333 341 321 338 72 162 161 133 127 115 112 120 128 141 147 152
6 4 2 2 1 358 355 355 352 350 349 348 349 348 344 339 335 332 328 327 326 326 327 332 348 353 346 347 342 337 335 331 306 255 247 233 173 181 197 204 216 232 208 221 232 218 221 255 254 249 221 209 212 186 161 157 99 104 101 93 105 122 191 224 202 189 182 216 268 286 314 317 322 344 323 1 57 142 139 124 126 118 118 118 128 141 148 153
6 4 3 2 1 358 356 354 352 350 350 349 350 350 348 343 339 335 329 327 323 324 324 331 346 350 347 346 341 338 332 332 305 269 254 192 186 184 188 205 213 234 238 235 235 212 214 246 266 274 225 228 213 163 155 163 131 149 125 99 157 157 173 217 202 188 196 194 253 293 309 294 296 354 336 355 48 80 107 130 135 129 133 134 138 144 149 155
6 4 3 2 360 358 356 353 352 350 349 350 350 352 351 347 344 337 332 328 323 322 322 330 344 347 347 343 342 340 333 353 300 269 190 188 204 195 193 211 215 237 246 238 237 224 237 264 281 278 240 253 190 141 152 181 169 136 122 157 176 158 158 195 199 199 204 185 172 291 290 290 301 337 350 8 63 51 45 126 138 140 142 143 146 149 154 158
7 5 4 2 359 357 355 353 351 349 348 349 350 351 351 349 346 340 335 330 325 322 322 330 342 345 346 342 344 338 342 37 280 254 189 182 197 203 205 212 222 241 240 232 238 241 262 280 288 283 257 272 120 122 183 190 146 83 70 186 169 158 152 174 184 187 209 191 165 249 274 297 315 351 26 41 87 91 301 101 137 143 145 148 151 154 158 162
7 6 4 1 359 357 355 353 350 348 347 347 348 350 351 348 345 341 336 332 328 323 323 332 344 349 343 343 347 338 12 102 268 238 196 156 164 198 205 209 221 231 226 219 237 261 306 288 280 295 261 260 150 146 180 174 134 103 137 208 186 174 143 159 166 161 211 193 164 234 302 315 346 10 7 32 111 190 247 270 132 144 148 150 153 158 163 168
6 5 2 0 359 357 355 353 350 348 346 346 347 349 350 347 344 341 336 333 330 325 326 334 345 351 344 348 358 9 108 251 267 224 202 147 145 189 196 204 207 212 215 196 181 246 298 253 262 246 248 276 169 151 157 154 130 114 158 199 195 169 132 145 139 130 199 151 147 289 333 323 32 27 324 340 250 236 225 99 101 143 152 150 155 163 167 172
4 2 0 0 359 356 354 352 350 347 346 345 345 347 348 345 342 339 335 333 330 326 327 336 346 354 357 358 5 10 235 255 242 188 183 156 164 186 185 191 193 201 218 205 179 195 256 265 258 225 319 305 149 144 149 138 119 121 161 180 171 137 125 132 129 143 172 131 145 118 341 307 90 172 293 320 294 335 76 80 48 149 159 155 160 165 168 173
1 359 358 358 357 355 353 350 349 347 345 344 343 345 345 343 340 337 334 332 331 328 331 340 342 352 8 4 66 5 281 251 179 164 159 163 174 178 178 184 194 203 229 240 224 218 232 251 244 215 355 323 118 135 150 139 139 177 171 163 154 141 145 144 144 162 167 152 164 145 222 273 233 197 271 276 282 10 67 62 1 167 167 168 163 166 173 175
357 357 356 355 354 353 351 350 348 346 344 342 341 341 342 341 338 334 332 332 332 333 339 348 343 13 50 60 76 6 282 216 170 159 142 156 165 173 184 189 199 210 234 257 242 226 215 227 254 288 308 300 115 150 166 155 142 168 164 142 134 136 160 164 155 161 159 162 174 159 173 238 305 57 178 244 265 43 68 39 342 120 157 201 173 170 175 171
355 355 354 353 351 350 349 348 347 345 343 340 339 339 339 339 334 331 331 331 335 340 347 356 359 54 111 110 109 263 273 201 180 160 141 148 147 168 187 190 203 216 227 252 258 246 245 258 275 320 268 226 100 152 161 140 133 150 144 100 82 61 349 189 149 157 161 158 183 170 129 131 350 341 218 246 333 67 75 41 342 56 4 246 176 169 166 158
355 353 352 350 349 348 347 346 345 344 341 339 337 336 336 335 330 327 328 331 338 347 356 6 46 94 93 118 195 244 258 212 200 170 165 154 129 147 167 181 199 214 221 231 262 266 274 281 296 350 267 183 102 115 132 133 132 137 126 103 62 11 343 268 178 172 193 164 181 168 100 98 271 244 238 247 22 69 92 74 20 26 312 193 142 147 160 156
355 352 351 349 347 346 345 345 344 342 339 337 334 335 334 330 326 323 327 334 340 351 9 21 56 53 31 255 258 272 281 233 214 188 189 175 144 173 174 187 200 217 228 228 257 282 289 293 302 298 275 136 125 120 122 131 131 121 102 108 94 30 325 260 249 191 212 171 175 157 91 259 250 247 253 228 51 73 118 116 88 26 358 131 129 117 136 138
354 352 350 348 346 345 344 343 342 340 338 334 332 333 330 326 323 321 326 334 341 357 17 24 8 19 66 261 280 296 309 253 211 196 193 185 191 207 206 214 218 226 237 238 257 280 287 297 307 278 286 124 145 96 103 123 133 123 85 47 105 105 263 250 239 193 204 161 169 132 100 245 258 251 250 203 188 174 177 144 109 140 59 111 146 123 104 96
352 350 349 347 345 344 343 342 340 338 335 332 331 332 328 323 319 316 323 329 341 358 15 23 8 16 10 281 289 309 329 193 194 197 192 188 198 212 216 222 227 231 236 243 255 270 282 297 324 354 306 319 94 92 122 139 141 131 120 326 214 177 189 248 237 197 204 140 167 161 124 223 256 243 224 174 178 176 181 140 115 150 95 67 117 124 119 123
350 349 348 346 344 343 342 340 339 336 333 330 329 330 327 319 311 308 307 306 327 357 41 44 34 43 353 280 302 324 263 190 197 200 195 196 206 225 231 223 226 232 234 240 250 263 278 297 321 211 285 324 69 107 139 138 212 242 144 175 208 172 147 225 247 211 209 132 185 219 165 194 248 230 187 152 167 161 170 246 153 143 101 59 51 112 123 126
349 347 346 344 343 341 340 339 338 335 331 328 328 329 325 313 301 295 290 275 290 289 162 21 2 25 258 273 309 305 238 213 212 196 196 209 219 232 235 214 216 224 229 239 251 264 284 315 294 280 332 311 163 114 105 199 218 245 202 194 207 168 156 171 226 221 203 176 205 225 254 258 194 165 158 155 161 146 166 242 254 142 118 108 83 104 103 109
348 346 344 343 342 340 340 338 336 334 329 327 329 330 325 312 296 282 220 164 152 345 302 303 4 43 264 269 272 257 234 214 206 186 195 212 215 227 224 204 199 181 193 261 274 265 319 339 354 318 322 263 206 127 158 219 192 189 198 207 208 165 174 182 185 199 186 194 216 188 243 269 162 132 145 161 153 143 180 231 260 172 133 135 151 132 98 99
347 345 344 342 340 339 339 337 336 334 328 326 330 331 328 341 17 114 125 124 124 315 287 238 159 154 265 255 237 264 251 199 188 180 188 201 211 230 229 217 179 128 122 44 265 221 172 333 360 301 265 236 220 188 203 221 183 193 197 187 188 171 192 188 163 178 170 181 219 182 212 234 169 153 153 161 148 146 191 232 236 188 138 133 148 152 136 129
347 345 344 342 340 338 338 337 337 333 328 328 335 341 350 26 25 44 95 161 203 224 246 227 191 217 272 276 285 283 210 174 175 184 184 191 199 218 247 227 127 120 156 163 208 220 140 167 252 241 238 235 233 220 219 225 212 215 207 193 197 181 196 183 162 181 158 161 222 199 217 217 179 175 169 159 147 161 197 203 207 196 157 140 153 175 172 152
348 347 345 341 339 337 337 337 336 333 334 339 348 0 98 112 5 325 316 246 225 216 233 235 208 225 250 258 274 273 172 160 186 195 187 185 162 157 262 222 129 229 217 171 172 159 126 179 230 232 232 233 235 232 227 229 227 232 214 188 189 191 209 178 161 178 155 138 229 187 223 262 191 191 187 156 152 185 200 186 195 201 183 147 150 171 174 147
349 348 344 341 338 335 335 337 335 336 349 355 356 13 238 291 303 309 310 282 264 219 220 239 223 235 249 250 254 255 264 189 203 218 190 177 143 159 220 162 175 239 241 130 104 111 160 222 235 231 229 231 243 246 241 249 244 236 210 160 157 193 177 55 151 172 159 130 257 174 165 337 349 299 223 169 164 186 198 191 194 196 187 161 156 159 158 148
350 347 345 342 338 334 334 336 333 341 359 349 334 294 319 327 324 318 310 289 289 234 209 230 221 232 249 252 243 231 244 211 182 226 190 166 154 174 173 194 208 234 238 155 165 173 196 240 235 230 227 228 247 252 242 255 251 191 155 144 168 181 155 146 205 178 165 161 159 143 117 347 342 347 320 272 198 126 157 177 166 180 173 163 161 154 163 170
349 348 347 341 337 333 333 335 334 354 350 335 304 311 340 345 346 337 315 266 296 263 217 218 207 212 233 243 220 195 217 211 176 206 183 162 153 161 174 206 209 244 247 203 186 186 224 241 229 222 231 222 236 255 246 246 261 198 163 166 170 178 177 181 176 158 140 145 146 112 59 321 328 69 281 306 333 353 44 107 87 50 88 124 123 128 155 169
350 349 347 342 339 332 331 336 1 348 339 326 305 334 347 350 347 344 331 304 307 277 242 211 192 219 229 227 199 181 186 205 200 184 176 172 166 148 193 203 180 239 253 244 218 203 235 244 209 195 235 229 223 250 239 209 240 293 201 186 168 177 185 145 132 128 112 240 217 141 99 291 310 66 240 303 350 252 282 139 132 75 80 109 117 130 133 134
349 348 347 344 340 334 335 349 343 337 333 316 333 341 348 351 347 347 44 54 314 271 260 174 156 207 221 203 173 145 121 227 222 169 171 186 184 159 193 220 193 234 247 255 240 207 237 238 191 184 218 219 213 236 229 195 192 281 232 184 166 173 165 137 137 133 142 216 220 169 133 257 302 314 237 218 193 229 245 156 165 129 117 113 137 172 151 128
347 347 347 343 341 341 339 310 323 334 325 309 337 341 348 351 346 350 69 39 311 250 211 228 164 177 196 181 150 115 120 240 235 157 175 189 187 138 186 230 299 246 250 360 310 301 245 241 215 198 204 200 208 236 229 168 147 253 225 147 163 176 157 149 154 163 185 126 158 185 136 97 264 282 226 176 180 233 221 188 209 199 167 162 177 188 165 158
345 345 345 342 340 338 323 299 319 331 307 320 337 342 346 346 344 4 93 46 304 238 163 221 249 169 179 158 148 151 199 165 99 205 189 181 179 96 186 225 227 241 250 83 298 286 265 274 237 209 197 192 204 223 220 151 148 250 240 144 172 181 159 155 161 178 188 88 110 213 169 93 248 286 302 122 213 244 227 220 224 211 195 190 189 184 163 156
344 344 342 339 337 335 320 303 304 310 326 335 340 338 341 343 351 60 86 63 280 287 180 157 211 171 141 131 161 208 241 121 158 208 163 175 192 126 191 217 210 246 253 181 230 272 266 288 253 183 166 206 222 220 209 180 207 257 249 128 153 160 153 156 163 172 159 123 191 206 175 118 277 288 38 114 246 247 230 231 227 213 202 194 190 177 163 157
343 342 340 337 333 331 318 300 290 319 347 342 333 332 339 348 35 72 49 251 260 280 204 81 300 158 140 152 192 241 241 193 140 142 130 198 222 139 221 217 181 249 285 237 245 263 264 288 279 201 173 189 219 230 204 195 212 237 43 71 48 94 136 144 151 143 153 207 226 195 175 143 20 274 221 179 223 210 197 227 224 230 241 206 200 194 177 164
342 341 338 333 325 314 297 293 302 342 339 330 327 334 354 25 65 92 177 249 276 274 146 81 264 156 153 170 193 216 216 222 109 141 167 219 246 332 312 344 14 356 336 311 293 289 297 313 280 246 192 160 158 285 289 270 213 206 98 68 40 2 62 78 17 68 192 257 242 176 164 130 128 245 222 214 243 189 164 184 180 202 241 215 191 197 188 152
342 340 336 329 313 286 260 273 311 322 317 326 338 354 56 59 29 180 235 317 323 262 181 199 236 191 171 183 195 191 191 168 156 165 170 187 204 215 212 207 180 36 335 281 297 316 315 301 273 274 239 146 119 313 318 354 4 136 87 70 81 354 23 32 284 240 211 272 240 141 130 104 217 250 210 203 235 182 155 177 176 185 209 193 181 182 176 149
341 338 335 326 302 279 274 288 307 311 313 340 4 41 80 83 242 223 247 306 256 272 306 194 226 214 174 186 215 191 188 196 186 181 177 178 189 217 236 216 178 147 227 231 304 336 316 309 293 270 272 153 122 134 278 333 344 74 114 103 108 112 72 352 268 260 186 335 21 86 89 84 261 292 209 185 197 175 158 169 167 166 177 177 183 174 158 155
341 339 335 322 300 288 288 294 300 313 343 9 49 65 80 143 232 239 244 256 261 292 314 310 248 217 185 200 210 175 179 219 195 176 177 168 172 221 249 241 203 171 168 210 218 194 235 297 276 206 225 196 142 166 168 156 294 258 152 128 124 147 143 180 224 210 166 147 12 10 47 125 205 261 209 162 156 151 142 146 149 153 165 157 143 142 143 148
341 340 337 325 309 311 315 262 161 127 39 48 64 75 147 210 249 249 237 266 315 313 309 311 264 201 193 219 220 184 181 216 203 175 165 169 186 211 214 225 216 183 139 182 231 204 198 259 247 211 193 170 169 195 157 115 21 281 129 97 122 185 147 150 188 145 140 129 33 359 31 164 221 285 279 116 114 126 131 141 145 144 154 141 131 139 140 140
342 342 344 330 316 14 99 136 145 134 92 75 73 132 203 222 234 209 247 291 324 313 314 324 330 143 175 215 241 223 199 183 186 185 187 193 200 207 206 219 207 184 171 176 222 232 158 281 272 246 175 193 181 176 149 126 137 300 52 125 216 173 127 121 12 79 100 101 14 355 93 26 13 335 319 99 111 133 147 151 149 139 136 131 131 140 136 133
342 342 336 311 309 159 137 137 145 134 82 81 107 216 230 241 233 228 281 297 295 299 328 334 329 52 92 235 305 286 280 35 187 198 208 208 217 214 212 223 200 190 191 183 216 230 150 278 291 106 187 232 190 142 154 151 142 118 103 208 211 65 82 106 118 24 60 95 276 189 143 164 178 248 262 162 139 160 168 154 141 130 126 130 136 144 146 150
337 334 317 300 286 160 157 147 147 129 74 76 128 248 239 247 251 258 283 295 302 306 330 291 260 52 57 17 347 346 356 8 249 254 247 216 248 223 208 214 208 206 202 184 204 241 141 223 295 240 193 231 360 119 179 284 129 137 158 177 107 89 341 35 120 132 83 106 165 170 164 194 204 194 190 181 172 174 172 144 138 139 136 140 145 145 145 145
337 337 320 290 152 164 167 158 147 88 66 85 236 251 244 255 265 269 268 273 283 276 265 247 244 17 73 121 10 345 2 11 289 303 310 232 254 229 207 203 211 220 209 179 179 234 138 121 290 271 216 173 17 43 180 283 318 52 108 107 80 132 165 144 153 150 131 133 143 155 189 239 230 202 183 180 180 176 168 151 149 152 151 152 150 146 145 143
354 350 305 309 131 155 159 151 113 63 82 200 210 228 274 277 276 272 262 256 252 253 235 189 255 323 279 149 121 265 275 300 272 295 278 243 261 257 225 208 204 216 201 178 178 202 121 133 218 284 305 90 58 229 183 190 222 31 135 180 72 76 120 114 351 85 123 137 146 148 201 255 245 197 180 179 181 179 167 156 161 163 157 156 152 149 151 149
348 348 292 79 98 143 151 131 56 100 163 251 228 238 267 265 273 277 272 263 248 241 219 177 185 248 252 239 153 184 247 261 224 231 251 253 269 273 257 245 219 186 148 170 192 180 166 174 169 277 308 160 230 238 191 175 172 159 178 186 147 135 121 99 360 307 97 128 157 151 186 259 257 182 175 178 177 177 164 153 162 167 156 154 154 150 148 144
326 338 267 281 350 321 73 110 265 195 197 249 241 250 262 256 265 278 284 280 261 246 243 207 187 195 249 272 196 168 229 254 235 235 244 255 268 256 283 308 285 205 139 163 207 194 149 128 123 185 240 221 245 267 223 185 168 130 146 186 149 125 118 124 172 244 78 109 137 117 139 263 261 179 170 173 172 170 160 151 153 155 151 147 143 137 129 128
31 296 285 303 319 314 83 320 280 261 237 253 257 258 262 262 264 273 280 279 268 257 252 249 255 285 259 273 299 311 57 266 244 233 255 268 279 270 287 330 324 258 166 167 204 203 92 99 132 243 298 303 296 318 340 255 102 87 100 199 149 148 148 144 163 160 129 148 134 90 120 267 269 190 166 168 166 155 151 151 145 143 147 140 136 134 128 127
310 272 283 323 339 138 152 233 252 254 269 279 282 275 270 263 260 266 270 272 273 255 223 244 239 282 263 282 301 277 228 274 255 253 275 248 270 284 295 353 360 327 269 202 179 162 113 128 114 86 4 344 337 348 349 344 29 93 203 249 208 176 125 93 87 89 96 191 161 125 192 258 279 153 147 152 148 143 153 157 147 148 152 146 143 140 135 134
313 255 249 316 334 148 175 207 177 283 306 323 315 300 290 274 267 276 278 281 284 248 193 213 213 212 254 288 295 278 241 227 238 273 280 247 279 294 318 360 4 330 303 225 149 122 135 152 109 114 140 192 217 276 273 278 333 329 286 308 276 157 125 111 103 89 100 197 165 145 190 247 281 126 137 148 147 147 158 158 153 156 155 153 152 145 143 142
337 320 267 311 342 20 319 14 46 19 348 346 326 302 300 301 304 308 300 298 318 319 192 213 228 219 267 278 277 288 278 231 242 303 298 278 293 302 338 350 345 333 332 328 131 96 103 134 128 136 156 179 188 216 219 168 104 290 296 303 296 119 115 116 111 130 167 168 181 199 174 168 183 161 154 163 158 156 160 160 160 161 153 153 152 146 148 147
338 304 315 337 330 338 8 30 29 9 327 323 312 293 308 312 309 315 316 320 342 349 351 293 276 199 227 258 243 266 289 287 291 305 297 297 312 328 343 350 352 348 346 338 333 38 94 146 160 148 167 197 191 204 205 158 161 203 244 282 277 226 119 132 154 180 150 136 203 231 172 159 180 180 168 172 168 161 164 166 167 164 157 154 150 147 150 151
263 275 4 18 314 306 13 347 338 333 317 314 299 282 301 310 308 313 319 313 321 354 38 330 303 269 251 252 233 242 277 298 292 286 314 342 359 357 347 349 357 354 351 342 329 48 115 179 197 157 179 209 198 220 215 176 182 203 218 257 268 273 168 167 192 171 149 153 197 201 179 173 177 175 172 174 169 165 169 171 166 158 155 151 147 151 156 158
304 298 354 12 318 281 300 301 307 316 316 316 300 285 300 309 308 303 298 306 316 346 52 328 299 309 311 291 257 235 245 263 281 279 34 21 22 28 8 347 340 344 353 352 327 5 102 225 223 152 150 189 199 246 252 214 202 203 221 245 261 268 199 194 199 176 169 190 189 175 178 183 178 175 176 173 165 161 161 160 154 150 153 151 152 160 165 161
346 324 344 346 299 278 273 284 303 316 310 299 274 272 282 290 307 321 316 305 297 305 334 305 295 338 338 313 298 333 291 205 114 279 108 82 58 61 66 36 322 329 347 356 327 344 26 263 240 130 124 217 214 210 245 276 252 221 239 250 252 248 203 211 179 170 164 107 150 154 164 194 218 179 164 155 143 140 143 150 152 154 155 153 158 167 165 158
337 313 325 315 281 284 273 286 333 332 305 270 247 266 286 298 333 348 331 308 304 316 330 317 315 1 345 322 356 15 359 72 102 167 165 103 137 144 146 180 291 333 345 357 332 344 8 300 308 74 122 261 243 185 194 313 337 333 292 256 214 153 231 252 208 174 146 122 118 128 152 202 215 155 134 135 141 140 147 153 152 156 159 157 163 166 160 158
345 327 334 323 269 281 287 293 314 298 274 251 276 310 322 324 340 354 339 319 332 342 340 328 328 13 10 359 18 356 328 73 128 183 185 177 205 181 165 194 205 243 307 345 318 322 29 360 335 73 147 266 261 210 195 50 30 336 283 220 190 172 152 65 324 271 139 134 134 156 186 188 162 142 134 144 152 148 151 155 152 159 163 160 160 158 156 160